Regional Weather Roundup
Issued by NWS Upton, NY

Current Version | Previous Version | Text Only | Print | Product List | Glossary On
Versions: 1 2 3 4 5 6 7 8 9 10 11 12 13 14 15 16 17 18 19 20 21 22 23 24 25 26 27 28 29 30 31 32 33 34 35 36 37 38 39 40 41 42 43 44 45 46 47 48 49 50
000
ASUS41 KOKX 210605
RWROKX

REGIONAL WEATHER ROUNDUP
NATIONAL WEATHER SERVICE NEW YORK NY
200 AM EDT SUN SEP 21 2014

NOTE: "FAIR" INDICATES FEW OR NO CLOUDS BELOW 12,000 FEET WITH NO
SIGNIFICANT WEATHER AND/OR OBSTRUCTIONS TO VISIBILITY.

NYZ071-072-176-178-NJZ106-104-210700-
NEW YORK CITY METRO AREA


CITY           SKY/WX    TMP DP  RH WIND       PRES   REMARKS
CENTRAL PARK   CLOUDY    68  65  90 CALM      30.04F FOG
LAGUARDIA APRT LGT RAIN  68  64  87 CALM      30.01F
KENNEDY INTL   LGT RAIN  68  66  93 CALM      30.02F FOG
NEWARK/LIBERTY LGT RAIN  70  64  83 NW6       30.01F
BRNX BOT. GARD   N/A     66  64  94 CALM      30.02F
TETERBORO      LGT RAIN  67  63  87 N5        30.01F FOG
$$

NYZ177-179-078>081-210700-
LONG ISLAND NEW YORK

CITY           SKY/WX    TMP DP  RH WIND       PRES   REMARKS
FARMINGDALE    LGT RAIN  68  66  93 SE7       30.01F FOG
ISLIP          HVY RAIN  67  65  93 E7        29.99F FOG
SHIRLEY        LGT RAIN  67  65  93 CALM      30.02F FOG
WESTHAMPTON    CLOUDY    68  65  90 VRB3      30.04F
MONTAUK POINT    N/A     70  65  84 VRB3      30.05F
$$

NYZ052-065-067-210700-
HUDSON VALLEY

CITY           SKY/WX    TMP DP  RH WIND       PRES   REMARKS
WHITE PLAINS   RAIN      65  63  93 CALM      30.02F FOG
NEWBURGH       MOCLDY    61  59  94 W6        30.04F
MONTGOMERY     CLOUDY    56  54  93 CALM      30.03F
POUGHKEEPSIE   CLOUDY    61  58  90 CALM      30.02F
ALBANY         CLEAR     64  58  80 S16       29.97F
$$

NJZ001-105-106-008-010-013-015-019>022-104-210700-
NEW JERSEY

CITY           SKY/WX    TMP DP  RH WIND       PRES   REMARKS
NEWARK/LIBERTY LGT RAIN  70  64  83 NW6       30.01F
TETERBORO      LGT RAIN  67  63  87 N5        30.01F FOG
CALDWELL       LGT RAIN  64  61  90 CALM      30.03F
MORRISTOWN     RAIN      64  63  94 CALM      30.03F
SOMERVILLE     CLOUDY    64  61  90 CALM      30.01F
LINDEN         DRIZZLE   71  68  89 NW6       30.03F
SUSSEX         CLOUDY    60  57  89 CALM      30.03F
ANDOVER          N/A     62  60  93 CALM      30.03F
TRENTON        CLOUDY    64  61  90 NW5       30.01F
MILLVILLE      CLOUDY    68  65  90 N3        29.99F
ATLANTIC CITY  CLOUDY    67  66  97 CALM      29.99F
WRIGHTSTOWN    CLOUDY    66  65  94 NW3       29.98F
TOMS RIVER     PTCLDY    64  63  94 CALM      30.00F
BELMAR         CLOUDY    70  64  83 N3        30.00F
$$

PAZ047>061-062-071-210700-
EASTERN PENNSYLVANIA

CITY           SKY/WX    TMP DP  RH WIND       PRES   REMARKS
PHILADELPHIA   CLOUDY    69  64  84 NW7       30.01F
ALLENTOWN      CLEAR     56  54  93 NW3       30.02F
SCRANTON       CLEAR     62  56  80 SW3       30.00F
$$

CTZ002-004>006-009-010-012-RIZ004-006-007-MAZ004-011-015-210700-
SOUTHERN NEW ENGLAND
 IN CT

CITY           SKY/WX    TMP DP  RH WIND       PRES   REMARKS
BRADLEY INTL   LGT RAIN  62  59  90 S3        30.04F FOG
HARTFORD       LGT RAIN  62  60  93 CALM      30.04F
DANBURY        CLOUDY    63  61  93 CALM      30.05F FOG
WTRBRY/OXFORD  CLOUDY    63  59  88 CALM      30.05F
BRIDGEPORT     RAIN      68  65  90 NE3       30.03F FOG
MERIDEN        CLOUDY    61  59  93 CALM      30.04F FOG
NEW HAVEN      RAIN      68  64  87 E3        30.04F FOG
CHESTER        CLOUDY    63  61  94 CALM      30.07F
GROTON         LGT RAIN  66  64  93 E3        30.04F
WILLIMANTIC    CLOUDY    58  55  90 CALM      30.05F

 IN RI

CITY           SKY/WX    TMP DP  RH WIND       PRES   REMARKS
PROVIDENCE     CLOUDY    62  57  83 CALM      30.07F
BLOCK ISLAND   CLOUDY    70  63  78 S12       30.05F
WESTERLY       CLOUDY    64  60  87 CALM      30.05F

 IN MA

CITY           SKY/WX    TMP DP  RH WIND       PRES   REMARKS
BOSTON         CLOUDY    63  57  81 S8        30.06F
WORCESTER      LGT RAIN  61  58  90 S17G23    30.07F
WESTFIELD      CLOUDY    58  56  93 NW5       30.05F
PROVINCETOWN   CLOUDY    64  57  77 S9        30.08F
NANTUCKET      MOCLDY    62  59  90 SE6       30.09F
$$

ANZ330-335-338-340-345-350-353-355-210700-
COASTAL MARINE OBSERVATIONS


STATION/POSITION TIME  SKY/WX   TEMP    WIND        PRES    VSBY  WAVE
                                AIR SEA DIR/SP/G                  HT/PER
                 (UTC)          (F)     (DEG/KT/KT) (MB)    (MI)  (FT/S)
NY HARB ENTRANCE 0600            71 70  140/ 12/ 14 1016.2          4/ 9
4S FIRE IS       0600               69                N/A           4/ 8
20S FIRE ISLAND  0600            70 69  130/  6/  8 1016.9          4/ 7
23SW MTP         0600                                 N/A           4/ 5
HUDSON CANYON    0600            73 72  140/ 14/ 16 1016.1          5/ 6
EXECUTION ROCKS  0600            68 70   90/  6/  8   N/A
WESTERN LI SOUND 0600            68      70/  6/  8   N/A           0
CENTRAL LI SOUND 0600            69 70  170/ 12/ 16   N/A           1
EASTERN LI SOUND 0500            69 68  120/  4/  6   N/A
ROBBINS REEF     0600            69     180/  3/  3 1015.2
$$


>>>>>>>>>>>>>>>>>>>>>>>>>>>> KEY <<<<<<<<<<<<<<<<<<<<<<<<<<<
>                                                          <
>     SKY/WX - SKY CONDITION/PRESENT WEATHER               <
>     TMP    - TEMPERATURE IN FAHRENHEIT                   <
>     DP     - DEWPOINT IN FAHRENHEIT                      <
>     RH     - RELATIVE HUMIDITY IN PERCENT                <
>     WIND   - DIRECTION AND SPEED IN MPH                  <
>     PRES   - MEAN SEA LEVEL PRESSURE IN INCHES OF HG     <
>     WCI    - WIND CHILL INDEX                            <
>     VSB    - VISIBILITY IN MILES                         <
>     HX     - HEAT INDEX                                  <
>     TC     - TEMPERATURE IN CELSIUS                      <
>     VRB    - VARIABLE WIND DIRECTION                     <
>                                                          <
>>>>>>>>>>>>>>>>>>>>>>>>>>>> KEY <<<<<<<<<<<<<<<<<<<<<<<<<<<




USA.gov is the U.S. government's official web portal to all federal, state and local government web resources and services.